Terminal Aerodrome Forecast
Issued by NWS Houston/Galveston, TX

Home | Current Version | Previous Version | Text Only | Print | Product List | Glossary On
Versions: 1 2 3 4 5 6 7 8 9 10 11 12 13 14 15 16 17 18 19 20 21 22 23 24 25 26 27 28 29 30 31 32 33 34 35 36 37 38 39 40 41 42 43 44
000
FTUS44 KHGX 302336
TAFGLS
TAF
KGLS 302336Z 3100/3124 12006KT P6SM FEW100 FEW120
     FM310500 16015KT P6SM VCSH SCT025 SCT040 OVC250
      TEMPO 3111/3115 SHRA BKN022 OVC060
     FM311500 16007KT P6SM VCSH SCT035 OVC090
      TEMPO 3115/3119 -SHRA BKN035=

USA.gov is the U.S. government's official web portal to all federal, state and local government web resources and services.